Location: *
(49.6619°S, 177.4603°W)
Time: 05:20:11
(UTC+00:00)

Okean-O - Pass Details

Date: 31 January 2023
Orbit: 637 x 638 km, 98.1° (Epoch: 01 April)

Event Time Altitude Azimuth Distance (km) Brightness Sun altitude
Rises 09:32:12 0° 172° (S) 2,986 6.8 -15.1°
Reaches altitude 10° 09:34:32 10° 179° (S) 2,068 6.0 -15.3°
Maximum altitude 09:38:43 39° 247° (WSW) 983 4.1 -15.7°
Drops below altitude 10° 09:42:51 10° 315° (NW) 2,043 5.1 -16.1°
Sets 09:45:09 0° 322° (NW) 2,945 5.9 -16.3°
